Lapse_Rate
7.5 7.8 7.8 7.3 7.3 7.2 7.4 7.8 8.2 8.2 7.8 8.0 7.9 8.2 8.2 8.0 7.9 7.3 7.6 7.6 8.0 8.2 8.3 8.4 8.6 8.5 8.1 7.7 6.9 6.6 7.7 7.6 7.2 7.2 7.3 7.1 7.0 6.1 5.9 5.3 4.9 5.0 4.8 5.3
7.9 8.0 6.9 7.2 7.3 7.5 7.9 8.0 8.0 7.8 8.2 8.3 8.1 7.8 8.2 8.2 7.9 7.8 7.5 7.4 7.5 7.8 8.0 8.1 8.4 8.4 8.3 7.8 7.2 6.7 7.5 7.6 7.6 7.1 7.1 7.4 7.1 6.8 6.2 5.8 5.8 5.4 5.1 5.2
7.2 7.3 7.1 7.2 7.6 7.6 7.6 7.7 7.8 7.7 7.8 7.9 8.1 8.2 8.2 7.9 7.7 7.8 7.9 7.7 7.5 7.6 7.8 7.8 8.1 8.5 8.6 8.2 7.5 6.8 7.0 7.8 7.8 7.6 7.1 7.1 7.0 6.8 6.2 5.7 6.0 5.8 5.5 4.8
7.5 7.3 7.3 7.3 7.9 6.9 7.0 7.4 7.5 7.6 7.9 8.0 8.6 9.0 8.9 9.1 9.5 8.4 7.7 7.8 7.4 7.6 8.0 8.0 7.9 8.2 8.5 8.7 7.8 7.2 6.9 7.5 7.7 7.7 7.3 7.0 7.3 7.3 7.2 6.5 5.9 5.9 5.9 5.4
7.7 7.3 7.6 7.5 7.3 6.8 7.0 7.2 7.5 7.5 8.0 8.3 7.9 8.7 8.9 7.7 7.7 6.4 6.3 7.6 7.6 7.5 7.3 7.4 7.5 7.8 8.2 9.2 8.9 7.4 6.9 7.0 7.6 7.6 7.3 7.4 7.0 7.0 7.2 6.8 6.1 5.8 5.8 5.2
6.9 7.7 7.9 7.3 6.9 6.8 6.9 7.4 7.6 8.2 8.6 9.0 8.5 9.3 5.9 6.0 5.4 5.4 5.1 6.6 7.6 7.8 7.5 7.3 7.4 7.6 7.9 8.2 8.0 8.5 7.3 7.2 7.7 7.4 7.5 7.4 6.9 6.5 7.1 6.9 6.5 6.1 6.1 5.9
6.6 7.5 8.1 8.3 7.0 7.2 7.4 7.6 8.6 8.4 8.6 8.8 6.7 6.6 5.3 5.1 4.9 4.8 4.7 5.6 7.6 8.1 7.8 7.6 7.5 7.5 7.7 8.1 7.8 6.8 7.0 7.2 7.5 7.5 7.4 7.3 7.3 6.7 6.4 7.2 7.0 6.7 6.3 6.0
5.8 6.3 7.6 7.5 7.7 7.8 8.1 8.7 9.1 7.9 7.6 7.8 7.2 6.5 4.6 4.5 4.4 4.1 4.4 4.7 6.1 7.9 7.5 7.2 7.3 7.4 7.7 7.9 7.7 6.9 6.5 7.2 7.3 7.7 7.7 7.5 7.1 7.1 6.9 7.0 7.1 6.7 6.6 6.3
6.1 6.3 6.5 7.2 8.5 9.1 8.9 9.1 9.0 8.4 7.8 8.1 7.8 5.4 5.4 4.4 4.7 4.7 5.1 5.7 6.8 7.7 8.0 7.4 7.0 7.1 7.6 7.8 7.4 6.7 6.4 6.7 6.9 7.6 7.8 7.6 7.6 7.1 7.0 6.9 6.9 6.8 6.6 6.3
6.3 6.9 7.2 7.8 8.5 8.9 8.4 8.4 8.1 8.6 8.1 8.0 6.3 5.2 4.7 4.3 4.2 4.5 4.9 5.2 5.9 6.8 7.6 8.0 7.4 7.1 6.9 7.4 7.0 6.8 6.4 6.2 6.2 7.1 7.8 7.5 7.7 7.5 7.0 7.1 6.8 6.8 6.8 6.4
6.1 7.0 7.1 8.3 8.7 8.0 8.3 8.0 7.9 8.2 8.7 8.2 7.6 6.1 5.2 4.4 4.1 4.1 4.3 4.7 4.7 5.6 7.0 7.8 7.8 7.5 7.5 7.2 7.0 7.1 7.1 6.6 6.6 6.7 7.3 7.5 7.7 7.5 7.9 6.8 6.7 6.8 6.8 6.8
6.5 7.0 7.9 8.0 8.0 8.0 7.8 8.1 8.0 8.1 8.5 7.5 7.5 6.0 5.2 4.8 4.3 4.4 4.4 4.7 4.9 4.8 5.2 6.7 7.3 7.4 7.7 7.6 7.2 7.0 7.1 6.3 6.5 6.7 6.9 7.4 7.8 7.4 7.2 7.1 6.9 7.1 6.7 6.6
6.7 7.6 8.3 7.8 8.3 8.2 7.8 7.8 7.6 8.3 8.0 6.7 7.3 5.9 5.3 5.0 5.0 4.6 4.5 4.4 4.6 5.0 4.5 5.1 6.1 6.5 6.8 7.3 7.0 6.9 6.4 7.0 7.3 7.4 6.5 7.2 7.6 7.6 7.4 7.5 7.1 7.1 6.9 6.5
6.8 7.5 9.2 8.8 8.3 8.5 8.1 7.9 7.4 7.7 7.4 7.4 6.3 5.5 5.5 5.4 5.4 5.2 5.0 4.5 4.4 4.7 4.5 4.1 4.8 5.8 6.1 6.2 6.6 6.4 6.5 6.8 6.6 6.6 6.4 6.7 6.8 6.8 6.9 7.1 7.0 7.1 7.2 6.9
6.9 7.3 8.3 8.3 8.8 8.3 8.0 7.9 7.6 7.1 7.1 7.2 6.3 5.8 5.4 5.4 5.2 4.9 5.1 5.4 5.0 4.8 4.9 4.4 4.2 4.8 5.3 5.9 5.8 5.6 6.2 6.2 6.3 6.7 6.6 6.8 7.3 7.2 7.0 6.8 6.7 7.0 7.1 7.1
7.1 7.9 8.5 8.8 8.0 7.8 7.9 7.9 7.5 7.1 7.0 6.8 6.7 6.2 5.5 5.3 5.3 5.2 5.2 5.3 5.4 5.5 5.3 4.9 4.1 4.2 4.0 3.9 5.8 6.1 5.5 7.0 6.4 6.9 6.8 6.8 6.7 6.1 6.6 6.9 6.9 6.6 7.1 6.9
7.4 8.0 8.2 9.1 8.0 7.9 7.9 7.7 7.7 7.6 6.9 6.8 6.4 6.2 6.0 5.7 5.2 5.0 4.9 5.0 5.1 5.3 5.3 4.9 4.1 4.0 3.8 3.3 5.0 6.1 6.2 6.2 6.7 6.4 6.7 6.5 6.4 6.8 5.5 7.0 7.1 6.7 6.9 6.9
7.6 8.0 8.2 8.8 8.2 8.1 7.7 7.8 7.9 7.9 7.4 6.7 6.5 6.6 6.1 5.7 5.2 5.0 4.5 4.3 4.7 5.2 5.5 5.7 4.1 4.1 3.9 3.2 3.7 4.4 5.8 6.7 6.4 6.5 6.9 6.6 6.4 6.1 5.9 6.7 7.3 7.3 7.2 7.1
7.7 7.9 8.2 8.8 8.8 8.3 8.5 8.2 8.0 7.8 7.5 7.2 6.8 6.3 6.4 6.2 6.0 5.5 5.3 4.5 3.9 4.2 4.8 5.6 4.6 3.3 3.2 3.3 3.1 4.0 5.3 6.2 6.4 6.6 6.6 6.5 6.3 6.0 5.8 5.9 7.1 7.1 7.3 7.3
7.6 8.0 8.1 8.4 8.8 8.6 8.1 8.1 8.1 8.2 8.0 7.6 7.3 6.7 6.2 6.2 5.8 5.8 5.5 5.1 5.1 4.6 4.5 4.8 5.2 3.8 3.0 3.3 3.4 4.0 5.0 5.9 6.6 6.0 6.4 6.8 7.2 7.0 6.4 6.6 6.5 6.7 6.7 7.3
7.3 7.7 8.1 8.2 8.7 8.0 7.9 8.2 7.9 7.8 7.6 7.5 7.3 7.0 6.7 5.9 5.7 5.3 5.4 5.3 5.0 5.1 5.3 5.3 5.0 3.8 3.0 2.7 3.3 3.6 3.7 5.1 3.7 5.1 5.4 6.3 5.5 6.6 6.2 6.0 6.6 6.9 6.5 6.5
7.2 7.4 7.8 7.8 7.7 8.1 7.8 7.4 7.3 7.4 7.3 7.2 7.1 6.9 6.6 6.2 5.6 5.5 5.4 5.3 4.9 4.8 4.7 5.1 5.2 5.3 3.5 2.9 3.1 3.2 3.6 3.3 2.9 4.6 4.9 6.1 6.2 6.1 6.0 5.8 6.0 6.5 6.3 6.7
7.5 7.1 7.4 7.4 7.6 7.5 7.6 7.4 7.3 7.3 7.2 7.2 7.1 6.8 6.5 6.2 6.0 5.6 5.2 5.1 5.0 4.6 4.4 4.4 5.1 5.3 4.9 3.6 3.0 3.2 2.9 3.2 2.9 3.3 4.7 5.3 4.1 6.0 6.3 6.3 6.9 6.8 6.9 6.9
7.4 7.1 7.5 7.8 7.9 7.8 7.7 7.4 7.2 7.2 7.1 7.0 7.0 6.9 6.8 6.5 6.0 5.5 5.1 4.9 4.7 4.4 4.2 4.0 4.3 4.6 5.2 4.8 3.9 3.1 2.5 3.3 3.4 3.2 3.4 3.3 3.9 5.1 5.4 6.2 6.3 6.5 6.7 6.9
7.3 7.3 7.6 7.8 7.8 7.6 7.7 7.3 7.3 7.1 7.0 7.0 6.9 6.8 6.7 6.6 6.6 6.2 5.1 4.6 4.4 4.2 4.0 3.8 3.5 3.5 4.0 5.0 4.8 3.7 3.4 2.8 2.7 2.7 2.8 2.8 3.5 3.2 3.8 4.6 5.6 6.3 6.2 6.6
7.7 7.6 7.6 7.8 7.8 7.6 7.4 7.2 7.1 7.0 6.9 6.9 6.8 6.7 6.6 6.5 6.4 6.2 6.0 5.4 4.4 3.9 3.7 3.5 3.6 3.2 3.3 3.7 4.7 4.6 4.2 3.4 3.0 2.6 2.7 2.9 2.5 3.2 3.6 3.1 4.1 4.3 4.3 5.3
Wind_Speed
13 11 9 13 11 13 19 18 18 21 22 26 25 25 24 23 22 21 18 21 20 16 17 13 9 13 14 15 22 21 19 16 13 12 11 12 12 11 11 10 19 8 4 16
13 4 9 11 13 16 19 16 19 22 21 21 23 26 24 22 21 20 20 21 22 21 19 13 17 15 12 12 21 21 21 17 14 10 11 11 11 10 9 11 12 16 8 8
13 7 10 12 14 14 15 16 19 23 24 25 22 25 20 25 24 22 23 23 22 20 22 18 15 15 7 12 21 20 21 19 16 14 11 10 11 10 8 10 12 13 17 11
8 13 12 13 13 15 15 21 23 22 21 19 19 17 21 20 19 18 25 24 24 26 27 25 24 18 16 11 20 20 21 20 16 11 13 17 14 13 11 10 12 14 22 18
14 20 17 13 8 18 21 22 23 27 25 23 25 13 9 27 23 25 24 25 24 23 24 24 25 26 29 19 17 20 22 22 19 16 14 9 10 12 12 12 18 17 16 20
23 23 4 4 12 18 26 22 27 25 20 18 24 19 16 12 18 25 25 25 26 25 24 24 23 24 25 25 26 19 24 23 21 20 18 16 16 10 15 16 15 15 15 15
20 17 15 16 29 22 22 19 12 15 11 9 13 10 11 19 23 23 25 26 26 25 25 24 27 25 24 26 26 8 24 22 23 23 22 20 17 16 16 20 16 19 16 14
16 22 22 32 26 28 22 19 9 14 14 18 19 5 7 19 22 23 25 25 25 27 24 25 24 22 22 24 23 22 14 24 25 24 24 21 19 13 10 16 15 14 15 15
15 18 33 31 27 22 16 16 17 16 19 15 1 9 9 25 26 27 28 28 28 30 30 32 30 26 24 23 23 21 24 20 24 25 22 21 17 18 13 17 13 15 16 14
23 27 28 28 26 19 19 10 9 4 5 5 7 9 11 25 27 26 29 29 27 29 32 33 30 30 26 24 24 22 20 27 22 23 20 18 21 17 16 13 17 18 18 17
23 19 28 20 17 15 15 8 5 10 8 6 5 6 14 20 21 24 24 27 26 29 29 30 29 28 27 24 25 25 23 28 23 23 20 20 21 19 17 14 17 16 17 18
15 18 15 28 12 17 15 9 10 5 13 10 2 8 17 19 19 23 25 26 25 26 28 27 28 27 27 26 25 24 23 21 18 21 20 20 19 19 18 16 15 16 15 15
13 10 16 23 16 19 10 15 17 5 5 18 8 7 17 19 19 23 23 23 23 25 28 27 27 27 24 25 23 22 24 21 22 21 18 17 16 18 17 16 12 17 17 16
14 12 14 12 17 17 7 16 20 12 8 7 13 17 22 22 21 24 24 25 25 25 25 26 24 23 24 22 23 21 23 22 21 12 17 17 16 18 18 15 14 16 15 17
14 15 14 15 13 13 12 15 21 19 12 9 12 16 18 17 16 18 19 23 26 26 27 26 22 23 23 22 22 19 22 22 20 19 12 15 14 19 19 17 15 13 18 15
15 12 13 9 15 11 22 17 20 18 14 11 14 12 15 17 13 17 19 20 21 24 25 26 24 23 25 22 25 24 20 23 22 20 16 15 16 14 22 19 15 14 10 15
13 11 10 7 5 3 18 16 17 13 13 11 12 9 13 17 14 14 17 18 19 21 20 23 24 21 22 21 23 23 22 19 20 20 18 15 14 9 14 17 16 15 15 14
11 13 6 7 7 11 7 13 8 10 14 13 9 8 10 13 16 12 15 13 15 19 17 18 20 21 21 22 18 20 22 21 21 20 20 19 20 19 13 18 18 15 14 12
10 10 7 5 4 5 15 17 16 6 12 17 14 11 9 13 14 14 14 16 12 12 16 11 13 17 20 20 18 21 22 20 21 23 23 20 16 16 15 6 14 14 12 13
11 13 5 6 5 5 9 16 17 4 1 19 19 15 14 14 11 11 15 13 16 12 12 13 14 15 16 20 19 24 24 21 24 22 20 20 19 17 16 13 9 3 10 11
10 11 9 8 5 2 12 14 15 13 10 19 19 17 15 13 10 15 16 14 13 14 16 16 11 14 13 14 19 20 24 24 20 16 18 17 20 16 18 17 14 12 7 4
9 6 5 6 6 3 13 10 9 9 13 14 17 17 16 15 16 17 19 19 15 14 15 16 13 15 15 16 13 17 19 18 19 21 17 21 18 16 16 19 17 15 12 10
5 2 4 3 5 5 8 7 11 12 14 14 15 15 17 18 17 18 17 19 17 17 13 12 13 17 15 12 16 13 15 17 16 14 21 19 17 15 17 19 19 16 14 10
9 2 5 9 3 5 8 9 12 14 15 17 17 18 17 17 19 18 16 16 16 15 14 13 14 14 15 14 14 14 12 13 17 17 13 15 13 17 12 12 12 13 14 12
11 12 9 11 6 10 9 13 14 15 16 17 18 18 19 19 18 19 16 17 15 15 15 14 13 12 13 15 15 15 12 13 11 11 9 10 13 8 10 8 8 11 11 11
11 8 7 9 13 10 12 13 15 15 17 18 19 19 19 19 19 19 16 16 15 16 15 14 14 13 13 13 14 13 13 11 12 11 9 4 7 10 8 7 7 12 10 14
Wind_Direction
302 287 10 354 338 302 290 293 304 312 313 305 298 294 288 288 291 291 287 286 289 276 282 290 300 211 197 204 160 163 168 174 181 188 170 165 170 169 166 171 175 168 296 176
321 75 6 330 306 300 295 311 310 311 304 306 311 304 293 286 276 276 273 270 277 283 284 263 283 290 189 190 162 165 169 162 187 197 174 169 164 167 160 159 169 170 195 271
303 30 338 322 307 333 322 314 314 307 305 290 282 278 273 274 277 270 272 276 276 270 275 281 274 279 247 188 164 169 167 168 180 197 187 165 163 164 153 158 170 177 178 218
291 347 320 312 313 4 313 322 308 302 301 287 290 299 290 286 274 10 16 14 8 6 2 356 331 287 293 207 165 170 165 171 176 188 204 189 170 176 170 161 161 170 177 208
290 336 314 297 356 343 307 311 305 294 280 275 268 259 335 26 3 3 2 1 360 0 353 349 347 344 351 324 174 172 162 169 175 181 199 200 206 176 170 162 161 168 181 195
332 294 241 328 328 330 317 310 300 282 271 255 260 250 43 16 359 354 358 1 2 358 354 348 348 346 346 347 343 167 163 170 176 181 188 202 211 198 173 167 170 173 189 194
331 324 340 41 339 325 323 306 304 299 303 311 9 46 37 16 6 4 360 358 1 0 356 352 352 347 346 343 339 257 164 175 179 181 187 200 211 220 172 174 173 172 185 191
353 321 359 337 317 303 289 288 290 300 300 308 316 77 38 27 9 12 5 359 6 0 356 356 352 348 344 338 336 324 275 176 181 182 185 194 209 217 196 176 178 179 183 187
322 304 309 305 309 315 298 288 314 297 285 268 138 6 17 10 14 6 8 2 6 5 1 353 350 351 347 340 333 318 300 276 185 187 184 187 201 215 207 183 175 183 185 189
317 309 309 332 318 331 320 304 299 285 291 319 83 61 18 3 11 2 6 1 360 5 3 357 350 346 345 340 329 325 305 320 195 188 187 185 194 210 206 180 189 181 190 186
341 331 318 315 359 10 344 332 282 310 279 297 45 47 14 9 12 0 4 0 356 2 2 357 350 342 342 341 342 332 326 325 216 187 184 182 196 201 202 193 186 192 187 185
348 321 334 320 55 2 350 327 20 358 331 342 250 65 14 13 20 6 5 359 355 0 2 357 352 343 344 341 347 334 329 328 275 196 182 188 192 197 198 197 186 184 189 190
334 336 335 332 337 349 20 18 27 6 42 34 43 26 2 10 21 11 6 356 357 358 2 353 351 352 340 343 343 334 336 330 323 216 196 181 196 189 195 195 194 187 186 191
338 331 333 315 314 324 359 36 46 49 42 47 35 15 1 358 22 7 2 359 359 357 358 356 349 343 343 336 339 345 345 342 328 256 185 194 186 189 196 200 198 187 187 189
351 329 333 311 304 17 45 57 60 54 51 38 33 34 4 3 16 5 357 1 1 355 358 355 345 345 337 340 339 349 358 353 347 3 266 198 195 187 189 195 202 199 190 193
353 343 336 39 85 67 38 32 64 56 38 45 36 35 9 360 12 7 1 1 359 353 352 353 343 344 346 335 349 355 351 0 357 8 0 345 179 203 185 192 198 196 188 192
347 339 342 3 99 272 35 19 39 37 55 51 33 16 7 357 6 7 353 356 1 349 353 351 344 339 347 336 351 354 354 4 10 10 3 0 352 221 205 178 192 194 200 188
344 331 356 335 130 52 23 33 4 47 47 43 43 20 24 2 341 11 351 345 349 353 341 358 349 342 336 342 343 349 356 2 17 14 13 7 4 353 271 188 185 196 203 198
356 324 345 349 358 163 30 16 354 62 26 14 15 10 17 356 338 352 347 344 340 346 334 353 341 345 347 347 354 354 357 355 11 18 15 13 8 359 351 337 182 183 201 209
4 336 350 337 338 33 2 5 352 298 28 359 356 355 358 349 342 334 332 341 335 336 336 338 343 341 359 352 346 359 357 359 6 5 16 9 7 9 5 6 27 304 198 210
345 345 357 347 12 113 4 10 7 27 335 346 354 352 353 343 323 314 324 328 330 332 334 335 345 342 351 341 1 6 358 3 354 6 13 18 13 15 16 12 15 18 3 179
329 340 359 334 356 4 355 358 28 358 355 338 347 348 342 335 333 334 332 330 333 328 329 334 341 342 335 1 7 0 5 352 350 5 0 15 10 18 16 25 17 21 26 32
330 85 296 297 296 311 352 13 7 352 352 345 340 337 336 335 333 330 332 332 334 334 333 325 345 334 332 354 342 9 11 349 5 352 8 11 1 24 18 28 20 28 18 24
335 51 293 301 305 323 350 10 354 348 340 339 338 337 334 331 330 332 332 332 332 334 335 350 334 323 329 340 345 342 354 12 354 2 9 353 7 25 18 32 27 34 28 17
290 296 282 285 325 325 342 351 341 335 333 336 339 336 333 330 331 333 336 334 332 334 336 328 324 325 329 335 332 334 354 357 350 0 342 6 9 13 25 44 30 39 45 26
293 323 296 289 333 326 324 328 327 331 333 336 335 330 330 332 335 340 339 334 336 332 328 333 335 334 331 321 319 326 334 356 346 340 347 29 9 356 36 5 36 36 52 38